Weather History for KSUW - March, 2014

Change the Weather History Date:

Friday, March 7, 2014

  Actual Average (KDLH) Record (KDLH)
Temperature  
Mean Temperature 26 °F 22 °F  
Max Temperature 32 °F 31 °F 70 °F (2000)
Min Temperature 19 °F 14 °F -21 °F (1955)
Degree Days  
Heating Degree Days 39 43  
Month to date heating degree days 307  
Since 1 July heating degree days 7174  
Cooling Degree Days 0 0  
Month to date cooling degree days 0  
Year to date cooling degree days 0  
Moisture  
Dew Point 21 °F    
Average Humidity 78    
Maximum Humidity 92    
Minimum Humidity 64    
Precipitation  
Precipitation 0.00 in 0.04 in 1.21 in (1874)
Month to date precipitation 0.30  
Year to date precipitation 2.07  
Snow  
Snow 0.00 in 0.50 in 9.00 in (2002)
Month to date snowfall 3.8  
Since 1 July snowfall 69.4  
Snow Depth -    
Sea Level Pressure  
Sea Level Pressure 29.93 in    
Wind  
Wind Speed 7 mph (NW)    
Max Wind Speed 16 mph    
Max Gust Speed 22 mph    
Visibility 8 miles    
Events Snow    
T = Trace of Precipitation, MM = Missing Value Source: NWS Daily Summary

Daily Weather History Graph

Daily Weather History Graph

Search for Another Location

Airport or City:

Trip Planner

Search our weather history database for the weather conditions in past years. The results will help you decide how hot, cold, wet, or windy it might be!

Date:

Astronomy

Mar. 07, 2014 Rise Set
Actual Time 6:36 AM CST 6:02 PM CST
Civil Twilight 6:06 AM CST 6:33 PM CST
Nautical Twilight 5:31 AM CST 7:08 PM CST
Astronomical Twilight 4:56 AM CST 7:43 PM CST
Moon 10:07 AM CST (3/7) 12:29 AM CST (3/7)
Length of Visible Light 12h 26m
Length of Day
11h 26m
Waxing Crescent, 42% of the Moon is Illuminated
Mar 7
Waxing Crescent
Mar 8
First Quarter
Mar 16
Full
Mar 23
Last Quarter
Mar 30
New

Hourly Weather History & Observations

Time (CST) Temp. Windchill Dew Point Humidity Pressure Visibility Wind Dir Wind Speed Gust Speed Precip Events Conditions
12:15 AM 27.3 °F 19.1 °F 22.6 °F 83% 29.77 in 7.0 mi WSW 8.1 mph - N/A   Overcast
12:35 AM 27.3 °F 19.9 °F 22.1 °F 81% 29.78 in 10.0 mi SW 6.9 mph - N/A   Overcast
12:55 AM 27.3 °F 22.0 °F 22.1 °F 81% 29.80 in 10.0 mi WSW 4.6 mph - N/A   Overcast
1:15 AM 27.5 °F 19.3 °F 22.6 °F 82% 29.80 in 10.0 mi SW 8.1 mph - N/A   Overcast
1:35 AM 27.5 °F 18.6 °F 22.5 °F 81% 29.80 in 10.0 mi WSW 9.2 mph - N/A   Overcast
1:55 AM 27.3 °F 20.9 °F 22.1 °F 81% 29.80 in 10.0 mi SW 5.8 mph - N/A   Overcast
2:15 AM 27.3 °F 19.9 °F 21.9 °F 80% 29.80 in 10.0 mi SW 6.9 mph - N/A   Overcast
2:35 AM 27.1 °F 19.7 °F 21.9 °F 81% 29.79 in 10.0 mi SW 6.9 mph - N/A   Overcast
2:55 AM 27.1 °F 19.7 °F 21.7 °F 80% 29.79 in 10.0 mi SW 6.9 mph - N/A   Overcast
3:15 AM 27.1 °F 19.7 °F 21.7 °F 80% 29.78 in 10.0 mi SW 6.9 mph - N/A   Overcast
3:35 AM 27.0 °F 20.5 °F 21.9 °F 81% 29.78 in 5.0 mi SW 5.8 mph - N/A Snow Light Snow
3:55 AM 26.6 °F 20.0 °F 22.1 °F 83% 29.78 in 7.0 mi WSW 5.8 mph - N/A   Overcast
4:15 AM 26.6 °F 22.6 °F 22.5 °F 84% 29.78 in 7.0 mi WSW 3.5 mph - N/A   Overcast
4:30 AM 26.6 °F 21.2 °F 23.0 °F 86% 29.78 in 4.0 mi WSW 4.6 mph - N/A   Overcast
4:55 AM 26.6 °F 22.6 °F 23.7 °F 89% 29.77 in 5.0 mi SW 3.5 mph - N/A   Overcast
5:15 AM 26.2 °F 22.1 °F 23.9 °F 91% 29.77 in 5.0 mi West 3.5 mph - N/A   Overcast
5:35 AM 26.4 °F 22.4 °F 23.9 °F 90% 29.79 in 5.0 mi West 3.5 mph - N/A   Overcast
5:55 AM 26.4 °F 22.4 °F 23.9 °F 90% 29.79 in 5.0 mi West 3.5 mph - N/A   Overcast
6:15 AM 26.2 °F - 23.9 °F 91% 29.77 in 5.0 mi Calm Calm - N/A   Overcast
6:35 AM 26.2 °F - 23.9 °F 91% 29.78 in 5.0 mi Calm Calm - N/A   Overcast
6:55 AM 26.2 °F - 23.9 °F 91% 29.79 in 4.0 mi Calm Calm - N/A   Overcast
7:15 AM 26.2 °F - 23.9 °F 91% 29.79 in 4.0 mi Calm Calm - N/A   Overcast
7:35 AM 26.6 °F - 24.4 °F 92% 29.79 in 4.0 mi Calm Calm - N/A   Overcast
7:55 AM 26.6 °F 22.6 °F 24.1 °F 90% 29.79 in 4.0 mi West 3.5 mph - N/A   Overcast
8:15 AM 27.1 °F 21.8 °F 24.3 °F 89% 29.79 in 4.0 mi WSW 4.6 mph - N/A   Overcast
8:35 AM 27.5 °F 20.2 °F 24.4 °F 88% 29.80 in 4.0 mi WSW 6.9 mph - N/A   Overcast
8:55 AM 27.5 °F 21.1 °F 24.6 °F 89% 29.81 in 4.0 mi WSW 5.8 mph - N/A   Overcast
9:15 AM 27.9 °F 24.0 °F 24.8 °F 88% 29.81 in 4.0 mi SW 3.5 mph - N/A   Overcast
9:35 AM 28.0 °F 24.2 °F 25.2 °F 89% 29.81 in 3.0 mi SW 3.5 mph - N/A   Overcast
9:55 AM 28.4 °F 23.3 °F 25.5 °F 89% 29.82 in 3.0 mi SSW 4.6 mph - N/A   Overcast
10:15 AM 28.9 °F 23.9 °F 25.7 °F 88% 29.81 in 3.0 mi SW 4.6 mph - N/A   Overcast
10:35 AM 29.8 °F - 26.1 °F 86% 29.82 in 4.0 mi Calm Calm - N/A   Overcast
10:55 AM 31.1 °F 24.5 °F 26.4 °F 83% 29.83 in 5.0 mi NW 6.9 mph - N/A   Haze
11:15 AM 31.6 °F 24.4 °F 26.6 °F 82% 29.84 in 5.0 mi NW 8.1 mph - N/A   Haze
11:35 AM 31.8 °F 24.6 °F 27.0 °F 82% 29.85 in 5.0 mi NW 8.1 mph - N/A   Haze
11:55 AM 32.0 °F 23.6 °F 26.6 °F 80% 29.86 in 7.0 mi NNW 10.4 mph - N/A   Overcast
12:15 PM 32.0 °F 23.0 °F 26.6 °F 80% 29.87 in 7.0 mi NNW 11.5 mph - N/A   Overcast
12:35 PM 32.0 °F 24.2 °F 26.4 °F 80% 29.88 in 7.0 mi NNW 9.2 mph - N/A   Overcast
12:55 PM 32.0 °F 25.6 °F 26.4 °F 80% 29.88 in 10.0 mi North 6.9 mph - N/A   Overcast
1:15 PM 32.0 °F 25.6 °F 26.2 °F 79% 29.89 in 10.0 mi NNW 6.9 mph - N/A   Overcast
1:35 PM 32.0 °F 23.0 °F 26.2 °F 79% 29.90 in 10.0 mi NNW 11.5 mph - N/A   Overcast
1:55 PM 32.0 °F 23.6 °F 25.9 °F 78% 29.91 in 10.0 mi North 10.4 mph - N/A   Overcast
2:15 PM 32.0 °F 24.2 °F 26.1 °F 79% 29.91 in 10.0 mi North 9.2 mph - N/A   Overcast
2:35 PM 32.0 °F 24.2 °F 25.7 °F 78% 29.93 in 10.0 mi North 9.2 mph - N/A   Overcast
2:55 PM 31.1 °F 21.9 °F 24.4 °F 76% 29.94 in 10.0 mi North 11.5 mph 17.3 mph N/A   Overcast
3:15 PM 31.1 °F 21.4 °F 24.4 °F 76% 29.96 in 10.0 mi North 12.7 mph - N/A   Overcast
3:35 PM 30.2 °F 21.3 °F 22.8 °F 74% 29.97 in 10.0 mi North 10.4 mph 18.4 mph N/A   Overcast
3:55 PM 29.7 °F 19.1 °F 21.2 °F 71% 29.99 in 10.0 mi North 13.8 mph - N/A   Overcast
4:15 PM 28.8 °F 17.9 °F 20.1 °F 70% 30.00 in 10.0 mi North 13.8 mph 21.9 mph N/A   Overcast
4:35 PM 28.8 °F 17.0 °F 18.9 °F 67% 30.02 in 10.0 mi North 16.1 mph 19.6 mph N/A   Overcast
4:55 PM 28.2 °F 17.7 °F 18.0 °F 65% 30.03 in 10.0 mi North 12.7 mph 19.6 mph N/A   Overcast
5:15 PM 28.2 °F 18.9 °F 17.4 °F 64% 30.04 in 10.0 mi North 10.4 mph 18.4 mph N/A   Overcast
5:35 PM 27.9 °F 19.8 °F 17.6 °F 65% 30.06 in 10.0 mi North 8.1 mph - N/A   Overcast
5:55 PM 27.0 °F 20.5 °F 16.5 °F 65% 30.08 in 10.0 mi North 5.8 mph - N/A   Overcast
6:15 PM 26.2 °F 19.6 °F 15.8 °F 65% 30.10 in 10.0 mi North 5.8 mph - N/A   Overcast
6:35 PM 25.7 °F 19.0 °F 15.3 °F 65% 30.11 in 10.0 mi NNE 5.8 mph - N/A   Mostly Cloudy
6:55 PM 25.2 °F 17.3 °F 14.9 °F 65% 30.13 in 10.0 mi North 6.9 mph - N/A   Mostly Cloudy
7:15 PM 24.6 °F 17.7 °F 14.9 °F 67% 30.13 in 10.0 mi North 5.8 mph - N/A   Overcast
7:35 PM 24.8 °F 16.9 °F 14.9 °F 66% 30.14 in 10.0 mi North 6.9 mph - N/A   Overcast
7:55 PM 24.6 °F 17.7 °F 15.4 °F 68% 30.16 in 10.0 mi North 5.8 mph - N/A   Overcast
8:15 PM 24.3 °F 17.3 °F 16.0 °F 71% 30.17 in 10.0 mi North 5.8 mph - N/A   Overcast
8:35 PM 24.1 °F 15.2 °F 15.8 °F 71% 30.18 in 10.0 mi North 8.1 mph - N/A   Overcast
8:55 PM 23.9 °F 15.8 °F 15.8 °F 71% 30.19 in 10.0 mi North 6.9 mph - N/A   Overcast
9:15 PM 23.7 °F 12.6 °F 15.4 °F 71% 30.18 in 10.0 mi North 11.5 mph - N/A   Overcast
9:35 PM 23.4 °F 12.8 °F 13.3 °F 65% 30.19 in 10.0 mi North 10.4 mph 17.3 mph N/A   Overcast
9:55 PM 23.2 °F 12.6 °F 13.1 °F 65% 30.19 in 10.0 mi North 10.4 mph - N/A   Overcast
10:15 PM 22.8 °F 13.6 °F 14.5 °F 71% 30.21 in 10.0 mi NNE 8.1 mph - N/A   Overcast
10:35 PM 22.6 °F 15.3 °F 13.3 °F 67% 30.21 in 10.0 mi North 5.8 mph 9.2 mph N/A   Overcast
10:55 PM 21.7 °F 10.8 °F 12.7 °F 68% 30.22 in 10.0 mi North 10.4 mph - N/A   Overcast
11:15 PM 21.0 °F 9.9 °F 11.8 °F 68% 30.23 in 10.0 mi North 10.4 mph - N/A   Overcast
11:35 PM 20.5 °F 9.2 °F 11.3 °F 68% 30.23 in 10.0 mi North 10.4 mph - N/A   Overcast
11:55 PM 19.4 °F 9.5 °F 10.4 °F 68% 30.23 in 10.0 mi North 8.1 mph - N/A   Overcast